Tracking 29967 objects as of 5-Dec-2024
HD Live streaming from Space Station
objects crossing your sky now

ARIANE 5 R/B

Track ARIANE 5 R/B now!


NORAD ID: 43634
Int'l Code: 2018-074C
Perigee: 278.8 km
Apogee: 33,939.4 km
Inclination: 6.2 °
Period: 596.8 minutes
Semi major axis: 23480 km
RCS: Unknown
Launch date: September 25, 2018
Source: France (FR)
Launch site: FRENCH GUIANA (FRGUI)

Note: This is a ROCKET BODY
Your satellite tracking list
Your tracking list is empty




NASA's NSSDC Master Catalog

Two Line Element Set (TLE):
1 43634U 18074C   24339.26407433  .00003530  00000-0  13977-2 0  9990
2 43634   6.1779 293.6350 7167915 275.7778  13.9633  2.41298255 52717
Source of the keplerian elements: AFSPC